Zurück zum Katalog

KOREASAT 6

AktivKommunikationGEO
NORAD 37265·PAYLOAD·🇰🇷 South Korea

Gestartet Dec 29, 2010 von Guiana Space Centre

Loading…

TLE

AktuellSource: Space-Track

Epoche: Sep 14, 2026, 21:24 UTC

1 37265U 10070B   26257.89192728 -.00000119  00000-0  00000-0 0  9991
2 37265   0.0156 231.4226 0002029 320.9815 282.4354  1.00269223 57676

Verfolge KOREASAT 6 in Echtzeit mit AllMySat

Download on the App Store